Sparta, WI

10:09 PM CST on February 19, 2017 (GMT -0600)
Sparta-Fort McCoy

Weather History for KCMY - November, 2010

Change the Weather History Date:

Saturday, November 20, 2010

  Actual Average Record
Temperature  
Mean Temperature 26 °F -  
Max Temperature 32 °F 43 °F 64 °F (1975)
Min Temperature 20 °F 25 °F -4 °F (2014)
Degree Days  
Heating Degree Days 39    
Moisture  
Dew Point 14 °F    
Average Humidity 59    
Maximum Humidity 83    
Minimum Humidity 42    
Precipitation  
Precipitation 0.00 in - - ()
Sea Level Pressure  
Sea Level Pressure 30.28 in    
Wind  
Wind Speed 6 mph (NNE)    
Max Wind Speed 15 mph    
Max Gust Speed 18 mph    
Visibility 10 miles    
Events      
Averages and records for this station are not official NWS values.
T = Trace of Precipitation, MM = Missing Value Source: NWS Daily Summary

Daily Weather History Graph

Daily Weather History Graph

Search for Another Location

Airport or City:

Trip Planner

Search our weather history database for the weather conditions in past years. The results will help you decide how hot, cold, wet, or windy it might be!

Date:

Astronomy

Nov. 20, 2010 Rise Set
Actual Time 7:04 AM CST 4:32 PM CST
Civil Twilight 6:32 AM CST 5:04 PM CST
Nautical Twilight 5:57 AM CST 5:39 PM CST
Astronomical Twilight 5:23 AM CST 6:13 PM CST
Moon 3:38 PM CST 6:04 AM CST
Length of Visible Light 10h 31m
Length of Day
9h 28m
Waxing Gibbous, 99% of the Moon is Illuminated
Nov 20
Waxing Gibbous
Nov 21
Full
Nov 28
Last Quarter
Dec 5
New
Dec 13
First Quarter

Hourly Weather History & Observations

Time (CST) Temp. Windchill Dew Point Humidity Pressure Visibility Wind Dir Wind Speed Gust Speed Precip Events Conditions
12:15 AM 28.4 °F 21.2 °F 17.6 °F 64% 30.19 in 10.0 mi WNW 6.9 mph - N/A   Clear
12:35 AM 28.2 °F 20.2 °F 17.4 °F 64% 30.19 in 10.0 mi NW 8.1 mph - N/A   Clear
12:55 AM 27.9 °F 19.1 °F 16.2 °F 62% 30.19 in 10.0 mi NW 9.2 mph - N/A   Clear
1:15 AM 27.5 °F 19.3 °F 15.4 °F 61% 30.20 in 10.0 mi NW 8.1 mph - N/A   Clear
1:35 AM 26.8 °F 17.7 °F 14.9 °F 61% 30.20 in 10.0 mi NW 9.2 mph - N/A   Clear
1:55 AM 26.4 °F 18.9 °F 14.9 °F 62% 30.21 in 10.0 mi NNW 6.9 mph - N/A   Clear
2:15 AM 26.1 °F 20.5 °F 14.7 °F 62% 30.21 in 10.0 mi NNW 4.6 mph - N/A   Clear
2:35 AM 25.5 °F 19.9 °F 14.2 °F 62% 30.22 in 10.0 mi NW 4.6 mph - N/A   Clear
2:55 AM 25.0 °F 19.3 °F 13.8 °F 63% 30.23 in 10.0 mi NNW 4.6 mph - N/A   Clear
3:15 AM 24.6 °F 20.3 °F 14.0 °F 64% 30.23 in 10.0 mi NW 3.5 mph - N/A   Clear
3:35 AM 24.6 °F 17.7 °F 13.6 °F 63% 30.23 in 10.0 mi NNW 5.8 mph - N/A   Clear
3:55 AM 23.7 °F - 13.6 °F 65% 30.25 in 10.0 mi Calm Calm - N/A   Clear
4:15 AM 23.7 °F - 13.5 °F 65% 30.25 in 10.0 mi Calm Calm - N/A   Clear
4:35 AM 23.0 °F 18.4 °F 13.3 °F 66% 30.26 in 10.0 mi NW 3.5 mph - N/A   Clear
4:55 AM 22.1 °F - 13.8 °F 70% 30.26 in 10.0 mi Calm Calm - N/A   Clear
5:15 AM 21.7 °F - 15.3 °F 76% 30.26 in 10.0 mi Calm Calm - N/A   Clear
5:35 AM 20.1 °F - 15.8 °F 83% 30.27 in 10.0 mi Calm Calm - N/A   Clear
5:55 AM 20.5 °F - 14.9 °F 79% 30.27 in 10.0 mi Calm Calm - N/A   Clear
6:15 AM 20.3 °F - 15.8 °F 83% 30.28 in 10.0 mi Calm Calm - N/A   Clear
6:35 AM 20.1 °F - 15.8 °F 83% 30.29 in 10.0 mi Calm Calm - N/A   Clear
6:55 AM 21.2 °F - 15.4 °F 78% 30.30 in 10.0 mi Calm Calm - N/A   Clear
7:15 AM 21.6 °F - 15.1 °F 76% 30.31 in 10.0 mi Calm Calm - N/A   Clear
7:35 AM 21.7 °F - 14.5 °F 74% 30.31 in 10.0 mi Calm Calm - N/A   Clear
7:55 AM 22.5 °F 16.3 °F 13.5 °F 68% 30.32 in 10.0 mi North 4.6 mph - N/A   Clear
8:15 AM 23.0 °F 17.0 °F 12.2 °F 63% 30.33 in 10.0 mi North 4.6 mph - N/A   Clear
8:35 AM 23.4 °F 14.3 °F 10.2 °F 57% 30.34 in 10.0 mi NNE 8.1 mph - N/A   Clear
8:55 AM 23.7 °F 14.7 °F 10.8 °F 58% 30.34 in 10.0 mi NE 8.1 mph - N/A   Clear
9:15 AM 23.9 °F 15.8 °F 11.1 °F 58% 30.34 in 10.0 mi North 6.9 mph - N/A   Clear
9:35 AM 24.6 °F 16.7 °F 11.5 °F 57% 30.34 in 10.0 mi North 6.9 mph - N/A   Clear
9:55 AM 25.2 °F 17.3 °F 11.5 °F 56% 30.33 in 10.0 mi NNE 6.9 mph - N/A   Clear
10:15 AM 27.1 °F 19.7 °F 11.7 °F 52% 30.34 in 10.0 mi ENE 6.9 mph - N/A   Clear
10:35 AM 27.0 °F 18.0 °F 11.3 °F 52% 30.34 in 10.0 mi NE 9.2 mph - N/A   Clear
10:55 AM 28.0 °F 20.0 °F 11.3 °F 50% 30.33 in 10.0 mi NNE 8.1 mph - N/A   Clear
11:15 AM 28.6 °F 20.7 °F 11.8 °F 50% 30.32 in 10.0 mi ENE 8.1 mph - N/A   Clear
11:35 AM 28.8 °F 21.7 °F 10.8 °F 47% 30.32 in 10.0 mi NE 6.9 mph - N/A   Clear
11:55 AM 30.2 °F 22.6 °F 11.8 °F 47% 30.31 in 10.0 mi ESE 8.1 mph - N/A   Clear
12:15 PM 31.1 °F 25.4 °F 11.5 °F 44% 30.31 in 10.0 mi East 5.8 mph - N/A   Clear
12:35 PM 31.1 °F 23.7 °F 10.8 °F 43% 30.31 in 10.0 mi ENE 8.1 mph - N/A   Clear
12:55 PM 31.8 °F 27.3 °F 12.0 °F 44% 30.31 in 10.0 mi East 4.6 mph - N/A   Clear
1:15 PM 32.4 °F 27.9 °F 11.5 °F 42% 30.31 in 10.0 mi ENE 4.6 mph - N/A   Clear
1:35 PM 32.0 °F 24.8 °F 12.2 °F 44% 30.30 in 10.0 mi NE 8.1 mph - N/A   Clear
2:15 PM 32.9 °F 23.7 °F 12.2 °F 42% 30.27 in 10.0 mi East 12.7 mph - N/A   Clear
2:35 PM 32.5 °F 22.3 °F 12.2 °F 43% 30.26 in 10.0 mi East 15.0 mph - N/A   Clear
2:55 PM 32.0 °F 23.0 °F 12.0 °F 44% 30.27 in 10.0 mi East 11.5 mph 18.4 mph N/A   Clear
3:15 PM 31.6 °F 22.6 °F 12.7 °F 46% 30.27 in 10.0 mi East 11.5 mph - N/A   Clear
3:35 PM 31.1 °F 23.7 °F 14.0 °F 49% 30.27 in 10.0 mi East 8.1 mph - N/A   Clear
3:55 PM 30.7 °F 24.1 °F 14.4 °F 51% 30.28 in 10.0 mi ENE 6.9 mph - N/A   Clear
4:15 PM 30.2 °F 21.9 °F 14.7 °F 53% 30.27 in 10.0 mi ENE 9.2 mph 16.1 mph N/A   Clear
4:35 PM 29.7 °F 22.0 °F 15.3 °F 55% 30.27 in 10.0 mi ENE 8.1 mph - N/A   Clear
4:55 PM 29.1 °F 22.1 °F 15.8 °F 58% 30.27 in 10.0 mi ENE 6.9 mph - N/A   Clear
5:15 PM 29.1 °F 20.6 °F 15.8 °F 58% 30.26 in 10.0 mi NE 9.2 mph - N/A   Clear
5:35 PM 29.1 °F 20.6 °F 16.5 °F 59% 30.26 in 10.0 mi ENE 9.2 mph - N/A   Clear
5:55 PM 29.1 °F 20.6 °F 16.7 °F 60% 30.26 in 10.0 mi ENE 9.2 mph - N/A   Clear
6:15 PM 29.3 °F 20.8 °F 17.1 °F 60% 30.25 in 10.0 mi East 9.2 mph - N/A   Scattered Clouds
6:55 PM 29.1 °F 19.4 °F 17.4 °F 62% 30.24 in 10.0 mi East 11.5 mph - N/A   Scattered Clouds
7:15 PM 29.1 °F 20.0 °F 17.4 °F 62% 30.23 in 10.0 mi East 10.4 mph - N/A   Mostly Cloudy
7:35 PM 29.3 °F 20.8 °F 18.0 °F 63% 30.24 in 10.0 mi East 9.2 mph 17.3 mph N/A   Overcast
7:55 PM 29.3 °F 19.6 °F 18.1 °F 63% 30.23 in 10.0 mi East 11.5 mph - N/A   Overcast
8:15 PM 29.3 °F 20.2 °F 18.5 °F 64% 30.22 in 10.0 mi East 10.4 mph - N/A   Mostly Cloudy
8:35 PM 29.3 °F 19.6 °F 19.2 °F 66% 30.22 in 10.0 mi East 11.5 mph - N/A   Mostly Cloudy
8:55 PM 29.7 °F 21.3 °F 19.8 °F 67% 30.21 in 10.0 mi East 9.2 mph - N/A   Overcast
9:15 PM 30.0 °F 20.5 °F 20.5 °F 68% 30.20 in 10.0 mi East 11.5 mph - N/A   Overcast
9:35 PM 30.2 °F 22.6 °F 21.6 °F 70% 30.20 in 10.0 mi East 8.1 mph 16.1 mph N/A   Overcast
9:55 PM 30.6 °F 21.8 °F 22.1 °F 71% 30.20 in 10.0 mi East 10.4 mph 18.4 mph N/A   Overcast
10:15 PM 30.7 °F 22.0 °F 22.8 °F 72% 30.20 in 10.0 mi East 10.4 mph 18.4 mph N/A   Overcast
10:35 PM 31.1 °F 21.9 °F 23.2 °F 72% 30.19 in 10.0 mi East 11.5 mph 18.4 mph N/A   Overcast
10:55 PM 31.1 °F 20.9 °F 23.5 °F 74% 30.17 in 10.0 mi East 13.8 mph - N/A   Overcast
11:15 PM 31.1 °F 23.1 °F 23.7 °F 74% 30.16 in 10.0 mi ESE 9.2 mph 18.4 mph N/A   Overcast
11:35 PM 31.1 °F 21.4 °F 23.9 °F 75% 30.14 in 10.0 mi East 12.7 mph - N/A   Overcast
11:55 PM 31.5 °F 21.4 °F 24.4 °F 75% 30.12 in 10.0 mi East 13.8 mph - N/A   Overcast